DL9BGG-13 Weather Reports


time (UTC)temp
F
wind
direction
speed
knots
gust
knots
rain 1hr
in
rain 24hr
in
rain mn
in
humidity
%
barometer
mb
20260505231029 50 45 7.8 0.0 0.00 0.00 0.00 82 1055.5
20260505230924 50 45 9.6 0.0 0.00 0.00 0.00 82 1055.4
20260505230818 50 22 3.5 0.0 0.00 0.00 0.00 82 1055.5
20260505230705 50 45 1.7 0.0 0.00 0.00 0.00 82 1055.6
20260505230544 50 90 10.4 0.0 0.00 0.00 0.00 82 1055.5
20260505230431 50 22 5.2 0.0 0.00 0.00 0.00 82 1055.5
20260505230317 50 22 5.2 0.0 0.00 0.00 0.00 82 1055.5
20260505230204 50 0 7.8 0.0 0.00 0.00 0.00 82 1055.5
20260505230052 50 22 4.3 0.0 0.00 0.00 0.00 82 1055.6
20260505225946 50 45 0.0 0.0 0.00 0.00 0.00 82 1055.5
20260505225833 50 45 6.1 0.0 0.00 0.00 0.00 82 1055.6
20260505225727 50 0 6.1 0.0 0.00 0.00 0.00 82 1055.6
20260505225622 50 0 5.2 0.0 0.00 0.00 0.00 82 1055.6
20260505225516 50 22 5.2 0.0 0.00 0.00 0.00 82 1055.6
20260505225410 50 22 2.6 0.0 0.00 0.00 0.00 82 1055.6
20260505225250 50 45 10.4 0.0 0.00 0.00 0.00 82 1055.6
20260505225143 50 45 5.2 0.0 0.00 0.00 0.00 82 1055.6
20260505225030 50 45 4.3 0.0 0.00 0.00 0.00 82 1055.6
20260505224924 50 67 0.0 0.0 0.00 0.00 0.00 83 1055.6
20260505224810 50 45 5.2 0.0 0.00 0.00 0.00 83 1055.7
20260505224705 50 22 5.2 0.0 0.00 0.00 0.00 83 1055.6
20260505224559 50 67 8.7 0.0 0.00 0.00 0.00 83 1055.7
20260505224453 50 22 7.0 0.0 0.00 0.00 0.00 83 1055.7
20260505224333 50 67 8.7 0.0 0.00 0.00 0.00 83 1055.7
20260505224226 50 90 7.0 0.0 0.00 0.00 0.00 83 1055.7
20260505224112 50 22 2.6 0.0 0.00 0.00 0.00 83 1055.7
20260505223958 50 45 5.2 0.0 0.00 0.00 0.00 83 1055.8
20260505223853 50 45 3.5 0.0 0.00 0.00 0.00 83 1055.7
20260505223746 50 45 4.3 0.0 0.00 0.00 0.00 83 1055.8
20260505223641 50 45 5.2 0.0 0.00 0.00 0.00 83 1055.8
20260505223534 50 45 7.0 0.0 0.00 0.00 0.00 83 1055.7
20260505223428 50 67 5.2 0.0 0.00 0.00 0.00 83 1055.7
20260505223314 50 22 1.7 0.0 0.00 0.00 0.00 83 1055.8
20260505223200 50 22 7.8 0.0 0.00 0.00 0.00 83 1055.7
20260505223038 50 45 4.3 0.0 0.00 0.00 0.00 84 1055.8
20260505222923 50 45 3.5 0.0 0.00 0.00 0.00 84 1055.8
20260505222801 50 67 6.1 0.0 0.00 0.00 0.00 84 1055.7
20260505222657 50 0 5.2 0.0 0.00 0.00 0.00 84 1055.8
20260505222548 50 45 5.2 0.0 0.00 0.00 0.00 84 1055.7
20260505222435 50 45 3.5 0.0 0.00 0.00 0.00 84 1055.7
20260505222328 50 45 4.3 0.0 0.00 0.00 0.00 84 1055.7
20260505222223 50 45 2.6 0.0 0.00 0.00 0.00 84 1055.7
20260505222116 50 22 5.2 0.0 0.00 0.00 0.00 84 1055.7
20260505222011 50 0 5.2 0.0 0.00 0.00 0.00 84 1055.7
20260505221904 50 22 4.3 0.0 0.00 0.00 0.00 84 1055.8
20260505221759 50 90 4.3 0.0 0.00 0.00 0.00 84 1055.7
20260505221654 50 90 7.8 0.0 0.00 0.00 0.00 84 1055.8
20260505221548 50 45 1.7 0.0 0.00 0.00 0.00 84 1055.8
20260505221435 50 45 3.5 0.0 0.00 0.00 0.00 84 1055.7
20260505221323 50 45 7.8 0.0 0.00 0.00 0.00 84 1055.7
20260505221219 50 45 5.2 0.0 0.00 0.00 0.00 85 1055.7
20260505221104 50 45 11.3 0.0 0.00 0.00 0.00 85 1055.7
20260505220951 50 45 15.6 0.0 0.00 0.00 0.00 85 1055.7
20260505220838 50 112 5.2 0.0 0.00 0.00 0.00 85 1055.7
20260505220716 50 22 5.2 0.0 0.00 0.00 0.00 85 1055.7
20260505220605 50 337 5.2 0.0 0.00 0.00 0.00 85 1055.7
20260505220458 50 22 5.2 0.0 0.00 0.00 0.00 85 1055.8
20260505220329 50 22 7.8 0.0 0.00 0.00 0.00 85 1055.8
20260505220216 50 22 5.2 0.0 0.00 0.00 0.00 85 1055.8
20260505220110 50 22 5.2 0.0 0.00 0.00 0.00 85 1055.8
20260505215941 50 67 9.6 0.0 0.00 0.00 0.00 85 1055.8
20260505215828 50 67 7.0 0.0 0.00 0.00 0.00 85 1055.8
20260505215723 50 45 4.3 0.0 0.00 0.00 0.00 85 1055.8
20260505215554 50 45 3.5 0.0 0.00 0.00 0.00 85 1055.8
20260505215441 50 45 3.5 0.0 0.00 0.00 0.00 85 1055.9
20260505215336 50 22 5.2 0.0 0.00 0.00 0.00 85 1055.9
20260505215224 50 0 11.3 0.0 0.00 0.00 0.00 85 1055.9
20260505215119 50 67 4.3 0.0 0.00 0.00 0.00 85 1055.8
20260505215013 50 22 6.1 0.0 0.00 0.00 0.00 85 1055.9
20260505214909 50 22 2.6 0.0 0.00 0.00 0.00 85 1055.9
20260505214803 50 45 4.3 0.0 0.00 0.00 0.00 85 1055.9
20260505214657 50 22 0.0 0.0 0.00 0.00 0.00 85 1056.0
20260505214545 50 22 7.8 0.0 0.00 0.00 0.00 85 1055.9
20260505214434 50 22 5.2 0.0 0.00 0.00 0.00 84 1056.0
20260505214326 50 45 3.5 0.0 0.00 0.00 0.00 84 1056.0
20260505214001 50 45 4.3 0.0 0.00 0.00 0.00 84 1056.0
20260505213851 50 45 1.7 0.0 0.00 0.00 0.00 84 1055.9
20260505213635 50 22 5.2 0.0 0.00 0.00 0.00 84 1056.0
20260505213521 50 45 7.0 0.0 0.00 0.00 0.00 84 1056.0
20260505213408 50 45 5.2 0.0 0.00 0.00 0.00 84 1056.0
20260505213254 50 67 8.7 0.0 0.00 0.00 0.00 84 1056.0
20260505213141 50 45 3.5 0.0 0.00 0.00 0.00 85 1056.0
20260505213027 50 45 5.2 0.0 0.00 0.00 0.00 85 1056.0
20260505212907 50 67 4.3 0.0 0.00 0.00 0.00 85 1056.1
20260505212754 50 67 4.3 0.0 0.00 0.00 0.00 85 1056.0
20260505212641 50 45 2.6 0.0 0.00 0.00 0.00 85 1056.0
20260505212528 50 22 8.7 0.0 0.00 0.00 0.00 85 1056.0
20260505212414 50 337 3.5 0.0 0.00 0.00 0.00 85 1056.0
20260505212305 50 45 4.3 0.0 0.00 0.00 0.00 85 1056.0
20260505212148 50 45 2.6 0.0 0.00 0.00 0.00 85 1056.0
20260505212036 50 22 2.6 0.0 0.00 0.00 0.00 85 1056.0
20260505211923 50 22 0.0 0.0 0.00 0.00 0.00 85 1056.0
20260505211817 50 45 4.3 0.0 0.00 0.00 0.00 85 1056.0
20260505211712 50 67 2.6 0.0 0.00 0.00 0.00 84 1056.0
20260505211601 50 45 7.0 0.0 0.00 0.00 0.00 84 1056.1
20260505211454 50 45 6.1 0.0 0.00 0.00 0.00 84 1056.1
20260505211333 50 45 7.8 0.0 0.00 0.00 0.00 84 1056.0
20260505211220 50 22 1.7 0.0 0.00 0.00 0.00 84 1056.1
20260505211114 50 22 7.8 0.0 0.00 0.00 0.00 85 1056.1
20260505210953 50 45 4.3 0.0 0.00 0.00 0.00 85 1056.1
20260505210840 50 45 10.4 0.0 0.00 0.00 0.00 85 1056.1
20260505210728 50 0 3.5 0.0 0.00 0.00 0.00 85 1056.1
20260505210622 50 45 4.3 0.0 0.00 0.00 0.00 85 1056.0
20260505210508 50 22 8.7 0.0 0.00 0.00 0.00 85 1056.1
20260505210348 50 45 5.2 0.0 0.00 0.00 0.00 85 1056.1
20260505210235 50 45 8.7 0.0 0.00 0.00 0.00 85 1056.1
20260505210129 50 22 5.2 0.0 0.00 0.00 0.00 85 1056.0
20260505210008 50 22 4.3 0.0 0.00 0.00 0.00 85 1056.0
20260505205847 50 0 2.6 0.0 0.00 0.00 0.00 85 1056.1
20260505205729 50 67 0.0 0.0 0.00 0.00 0.00 85 1056.1
20260505205622 50 22 2.6 0.0 0.00 0.00 0.00 85 1056.1
20260505205509 50 67 10.4 0.0 0.00 0.00 0.00 85 1056.1
20260505205403 50 45 4.3 0.0 0.00 0.00 0.00 85 1056.1
20260505205250 50 45 6.1 0.0 0.00 0.00 0.00 85 1056.1
20260505205144 50 45 6.1 0.0 0.00 0.00 0.00 85 1056.1
20260505205024 50 22 1.7 0.0 0.00 0.00 0.00 85 1056.1
20260505204911 50 45 11.3 0.0 0.00 0.00 0.00 85 1056.0
20260505204806 50 22 6.1 0.0 0.00 0.00 0.00 85 1056.1
20260505204653 50 45 11.3 0.0 0.00 0.00 0.00 85 1056.0
20260505204548 50 22 5.2 0.0 0.00 0.00 0.00 85 1056.0
20260505204442 50 45 4.3 0.0 0.00 0.00 0.00 85 1056.1
20260505204329 50 22 6.1 0.0 0.00 0.00 0.00 85 1056.0
20260505204217 50 90 6.1 0.0 0.00 0.00 0.00 85 1056.0
20260505204102 50 0 5.2 0.0 0.00 0.00 0.00 85 1055.9
20260505203950 50 22 6.1 0.0 0.00 0.00 0.00 85 1056.1
20260505203837 50 22 8.7 0.0 0.00 0.00 0.00 85 1056.0
20260505203732 50 0 3.5 0.0 0.00 0.00 0.00 85 1056.1
20260505203618 50 22 4.3 0.0 0.00 0.00 0.00 85 1056.1
20260505203458 50 0 4.3 0.0 0.00 0.00 0.00 85 1056.0
20260505203352 50 45 9.6 0.0 0.00 0.00 0.00 85 1056.0
20260505203241 50 0 9.6 0.0 0.00 0.00 0.00 85 1056.1
20260505203126 50 67 4.3 0.0 0.00 0.00 0.00 85 1056.1
20260505203015 50 45 10.4 0.0 0.00 0.00 0.00 85 1056.1
20260505202908 50 45 4.3 0.0 0.00 0.00 0.00 85 1056.2
20260505202803 50 0 0.0 0.0 0.00 0.00 0.00 84 1056.1
20260505202642 50 45 5.2 0.0 0.00 0.00 0.00 84 1056.1
20260505202537 50 0 7.0 0.0 0.00 0.00 0.00 84 1056.2
20260505202434 50 45 8.7 0.0 0.00 0.00 0.00 84 1056.2
20260505202318 50 22 3.5 0.0 0.00 0.00 0.00 84 1056.2
20260505202205 50 22 4.3 0.0 0.00 0.00 0.00 84 1056.1
20260505202058 50 22 10.4 0.0 0.00 0.00 0.00 84 1056.2
20260505201951 50 67 13.0 0.0 0.00 0.00 0.00 84 1056.2
20260505201839 50 22 8.7 0.0 0.00 0.00 0.00 84 1056.2
20260505201732 50 45 3.5 0.0 0.00 0.00 0.00 84 1056.2
20260505201612 50 67 1.7 0.0 0.00 0.00 0.00 84 1056.3
20260505201506 50 0 2.6 0.0 0.00 0.00 0.00 84 1056.3
20260505201352 50 22 3.5 0.0 0.00 0.00 0.00 85 1056.2
20260505201127 50 22 4.3 0.0 0.00 0.00 0.00 85 1056.2
20260505201014 50 45 8.7 0.0 0.00 0.00 0.00 84 1056.2
20260505200902 50 22 4.3 0.0 0.00 0.00 0.00 84 1056.2
20260505200754 50 22 3.5 0.0 0.00 0.00 0.00 84 1056.2
20260505200640 50 22 2.6 0.0 0.00 0.00 0.00 84 1056.2
20260505200534 50 67 6.1 0.0 0.00 0.00 0.00 84 1056.2
20260505200428 50 112 9.6 0.0 0.00 0.00 0.00 84 1056.2
20260505200322 50 22 4.3 0.0 0.00 0.00 0.00 84 1056.2
20260505200216 50 0 7.0 0.0 0.00 0.00 0.00 83 1056.2
20260505200109 50 67 7.8 0.0 0.00 0.00 0.00 83 1056.1
20260505200003 50 45 5.2 0.0 0.00 0.00 0.00 83 1056.2
20260505195849 50 22 5.2 0.0 0.00 0.00 0.00 83 1056.2
20260505195735 50 45 1.7 0.0 0.00 0.00 0.00 83 1056.1
20260505195621 50 45 7.0 0.0 0.00 0.00 0.00 83 1056.2
20260505195506 50 0 7.0 0.0 0.00 0.00 0.00 83 1056.2
20260505195347 50 67 3.5 0.0 0.00 0.00 0.00 83 1056.2
20260505195238 50 0 3.5 0.0 0.00 0.00 0.00 83 1056.3
20260505195118 50 45 5.2 0.0 0.00 0.00 0.00 83 1056.3
20260505195012 50 337 2.6 0.0 0.00 0.00 0.00 82 1056.2
20260505194802 50 22 1.7 0.0 0.00 0.00 0.00 82 1056.3
20260505194652 50 67 5.2 0.0 0.00 0.00 0.00 82 1056.3
20260505194546 50 67 5.2 0.0 0.00 0.00 0.00 82 1056.3
20260505194440 50 22 4.3 0.0 0.00 0.00 0.00 82 1056.3
20260505194327 50 45 12.2 0.0 0.00 0.00 0.00 82 1056.3
20260505194221 50 45 10.4 0.0 0.00 0.00 0.00 82 1056.2
20260505194107 50 22 3.5 0.0 0.00 0.00 0.00 82 1056.3
20260505193954 50 45 6.1 0.0 0.00 0.00 0.00 82 1056.2
20260505193850 50 45 8.7 0.0 0.00 0.00 0.00 82 1056.3
20260505193744 50 45 7.0 0.0 0.00 0.00 0.00 82 1056.3
20260505193623 50 22 5.2 0.0 0.00 0.00 0.00 82 1056.3
20260505193502 50 0 7.8 0.0 0.00 0.00 0.00 82 1056.3
20260505193333 50 45 9.6 0.0 0.00 0.00 0.00 82 1056.2
20260505193220 50 22 6.1 0.0 0.00 0.00 0.00 82 1056.3
20260505193106 50 45 5.2 0.0 0.00 0.00 0.00 82 1056.2
20260505192945 50 22 3.5 0.0 0.00 0.00 0.00 82 1056.2
20260505192830 50 22 5.2 0.0 0.00 0.00 0.00 82 1056.2
20260505192705 50 22 8.7 0.0 0.00 0.00 0.00 82 1056.2
20260505192557 50 337 5.2 0.0 0.00 0.00 0.00 82 1056.2
20260505192443 50 45 8.7 0.0 0.00 0.00 0.00 82 1056.2
20260505192336 50 45 6.1 0.0 0.00 0.00 0.00 82 1056.2
20260505192159 50 45 12.2 0.0 0.00 0.00 0.00 81 1056.2
20260505192054 50 22 6.1 0.0 0.00 0.00 0.00 81 1056.2
20260505191947 50 0 7.8 0.0 0.00 0.00 0.00 81 1056.2
20260505191820 50 22 7.0 0.0 0.00 0.00 0.00 81 1056.1
20260505191713 50 22 11.3 0.0 0.00 0.00 0.00 81 1056.3
20260505191559 50 337 6.1 0.0 0.00 0.00 0.00 80 1056.2
20260505191452 50 22 3.5 0.0 0.00 0.00 0.00 80 1056.2
20260505191326 50 22 6.1 0.0 0.00 0.00 0.00 81 1056.2
20260505191220 50 337 5.2 0.0 0.00 0.00 0.00 81 1056.2
20260505191113 50 22 8.7 0.0 0.00 0.00 0.00 81 1056.2
20260505190959 50 22 8.7 0.0 0.00 0.00 0.00 81 1056.2
20260505190829 50 45 6.1 0.0 0.00 0.00 0.00 81 1056.2
20260505190715 50 0 4.3 0.0 0.00 0.00 0.00 82 1056.2
20260505190608 50 45 7.0 0.0 0.00 0.00 0.00 82 1056.1
20260505190455 50 45 8.7 0.0 0.00 0.00 0.00 82 1056.1
20260505190351 50 45 7.0 0.0 0.00 0.00 0.00 82 1056.2
20260505190245 50 45 5.2 0.0 0.00 0.00 0.00 82 1056.1
20260505190120 50 45 7.0 0.0 0.00 0.00 0.00 82 1056.1
20260505190007 50 45 8.7 0.0 0.00 0.00 0.00 82 1056.1
20260505185854 50 22 5.2 0.0 0.00 0.00 0.00 82 1056.1
20260505185746 50 0 6.1 0.0 0.00 0.00 0.00 82 1056.1
20260505185627 50 45 7.8 0.0 0.00 0.00 0.00 82 1056.1
20260505185519 50 0 6.1 0.0 0.00 0.00 0.00 82 1056.1
20260505185406 50 45 9.6 0.0 0.00 0.00 0.00 82 1056.0
20260505185259 50 45 2.6 0.0 0.00 0.00 0.00 82 1056.1
20260505185130 50 0 5.2 0.0 0.00 0.00 0.00 82 1056.0
20260505185017 50 22 7.0 0.0 0.00 0.00 0.00 82 1056.0
20260505184911 50 0 5.2 0.0 0.00 0.00 0.00 82 1056.1
20260505184806 50 67 10.4 0.0 0.00 0.00 0.00 82 1056.1
20260505184653 50 0 8.7 0.0 0.00 0.00 0.00 83 1056.0
20260505184547 50 45 5.2 0.0 0.00 0.00 0.00 83 1056.0
20260505184441 50 45 12.2 0.0 0.00 0.00 0.00 83 1056.1
20260505184320 50 22 7.8 0.0 0.00 0.00 0.00 83 1056.0
20260505184211 50 22 0.0 0.0 0.00 0.00 0.00 83 1056.1
20260505184057 50 22 1.7 0.0 0.00 0.00 0.00 83 1056.0
20260505183952 50 22 5.2 0.0 0.00 0.00 0.00 83 1056.0
20260505183845 50 22 3.5 0.0 0.00 0.00 0.00 83 1056.0
20260505183730 50 22 4.3 0.0 0.00 0.00 0.00 82 1056.0
20260505183552 50 45 9.6 0.0 0.00 0.00 0.00 82 1055.9
20260505183433 50 45 7.8 0.0 0.00 0.00 0.00 83 1055.9
20260505183324 50 22 5.2 0.0 0.00 0.00 0.00 83 1056.0
20260505183210 50 45 7.0 0.0 0.00 0.00 0.00 83 1055.9
20260505183103 50 22 3.5 0.0 0.00 0.00 0.00 83 1056.0
20260505182936 50 22 0.0 0.0 0.00 0.00 0.00 83 1056.0
20260505182829 50 22 7.8 0.0 0.00 0.00 0.00 83 1055.9
20260505182724 50 22 3.5 0.0 0.00 0.00 0.00 83 1056.0
20260505182615 50 0 2.6 0.0 0.00 0.00 0.00 83 1055.9
20260505182501 50 0 5.2 0.0 0.00 0.00 0.00 83 1056.0
20260505182355 50 22 11.3 0.0 0.00 0.00 0.00 83 1056.0
20260505182250 50 0 7.0 0.0 0.00 0.00 0.00 83 1056.0
20260505182143 50 22 7.8 0.0 0.00 0.00 0.00 83 1055.9
20260505182036 50 45 5.2 0.0 0.00 0.00 0.00 83 1056.0
20260505181922 50 67 7.8 0.0 0.00 0.00 0.00 83 1056.0
20260505181802 50 45 5.2 0.0 0.00 0.00 0.00 83 1056.0
20260505181654 50 45 6.1 0.0 0.00 0.00 0.00 83 1055.9
20260505181539 50 67 12.2 0.0 0.00 0.00 0.00 83 1056.0
20260505181418 50 67 3.5 0.0 0.00 0.00 0.00 83 1055.9
20260505181313 50 45 10.4 0.0 0.00 0.00 0.00 83 1055.9
20260505181205 50 0 3.5 0.0 0.00 0.00 0.00 83 1055.9
20260505181054 50 45 9.6 0.0 0.00 0.00 0.00 83 1056.0
20260505180945 50 0 5.2 0.0 0.00 0.00 0.00 83 1056.0
20260505180831 50 315 6.1 0.0 0.00 0.00 0.00 83 1056.0
20260505180725 50 22 8.7 0.0 0.00 0.00 0.00 83 1056.0
20260505180618 50 0 4.3 0.0 0.00 0.00 0.00 83 1056.0
20260505180504 51 22 6.1 0.0 0.00 0.00 0.00 83 1056.0
20260505180352 51 45 7.0 0.0 0.00 0.00 0.00 83 1056.0
20260505180244 51 67 7.8 0.0 0.00 0.00 0.00 83 1056.0
20260505180130 51 0 11.3 0.0 0.00 0.00 0.00 83 1056.0
20260505180017 51 0 11.3 0.0 0.00 0.00 0.00 82 1056.0
20260505175857 51 45 7.0 0.0 0.00 0.00 0.00 82 1056.0
20260505175749 51 0 7.8 0.0 0.00 0.00 0.00 82 1056.0
20260505175642 51 22 4.3 0.0 0.00 0.00 0.00 82 1056.0
20260505175528 51 0 6.1 0.0 0.00 0.00 0.00 82 1056.1
20260505175414 51 0 9.6 0.0 0.00 0.00 0.00 82 1056.1
20260505175300 51 22 5.2 0.0 0.00 0.00 0.00 82 1056.0
20260505175138 51 0 3.5 0.0 0.00 0.00 0.00 82 1056.0
20260505175025 51 22 7.8 0.0 0.00 0.00 0.00 82 1056.0
20260505174912 51 0 8.7 0.0 0.00 0.00 0.00 82 1055.9
20260505174759 51 337 5.2 0.0 0.00 0.00 0.00 81 1056.0
20260505174638 51 22 7.0 0.0 0.00 0.00 0.00 81 1056.0
20260505174518 51 22 3.5 0.0 0.00 0.00 0.00 81 1056.1
20260505174408 51 0 5.2 0.0 0.00 0.00 0.00 81 1056.0
20260505174051 51 0 1.7 0.0 0.00 0.00 0.00 81 1056.1
20260505173936 51 22 7.0 0.0 0.00 0.00 0.00 81 1056.0
20260505173814 51 22 5.2 0.0 0.00 0.00 0.00 81 1056.1
20260505173701 51 22 6.1 0.0 0.00 0.00 0.00 81 1056.1
20260505173549 51 90 10.4 0.0 0.00 0.00 0.00 81 1056.0
20260505173443 51 0 11.3 0.0 0.00 0.00 0.00 81 1056.1
20260505173330 51 45 5.2 0.0 0.00 0.00 0.00 82 1056.1
20260505173225 51 337 4.3 0.0 0.00 0.00 0.00 82 1056.1
20260505173115 51 22 5.2 0.0 0.00 0.00 0.00 82 1056.1
20260505173005 51 45 3.5 0.0 0.00 0.00 0.00 82 1056.1
20260505172846 51 0 8.7 0.0 0.00 0.00 0.00 82 1056.1
20260505172732 51 337 6.1 0.0 0.00 0.00 0.00 82 1056.1
20260505172603 51 45 8.7 0.0 0.00 0.00 0.00 82 1056.1
20260505172434 51 0 5.2 0.0 0.00 0.00 0.00 82 1056.2
20260505172320 51 22 6.1 0.0 0.00 0.00 0.00 82 1056.2
20260505172159 51 0 5.2 0.0 0.00 0.00 0.00 82 1056.2
20260505172037 51 22 3.5 0.0 0.00 0.00 0.00 81 1056.2
20260505171919 51 0 5.2 0.0 0.00 0.00 0.00 81 1056.3
20260505171810 51 22 13.0 0.0 0.00 0.00 0.00 81 1056.3
20260505171649 51 0 9.6 0.0 0.00 0.00 0.00 81 1056.2
20260505171544 51 67 7.8 0.0 0.00 0.00 0.00 81 1056.2
20260505171429 51 0 5.2 0.0 0.00 0.00 0.00 81 1056.3
20260505171300 51 337 6.1 0.0 0.00 0.00 0.00 81 1056.2
20260505171139 51 0 8.7 0.0 0.00 0.00 0.00 81 1056.3
20260505171020 51 22 5.2 0.0 0.00 0.00 0.00 81 1056.2
20260505170913 51 337 7.0 0.0 0.00 0.00 0.00 81 1056.3
20260505170744 51 0 7.0 0.0 0.00 0.00 0.00 81 1056.3
20260505170631 51 22 5.2 0.0 0.00 0.00 0.00 81 1056.2
20260505170524 51 0 10.4 0.0 0.00 0.00 0.00 80 1056.3
20260505170405 51 337 12.2 0.0 0.00 0.00 0.00 80 1056.2
20260505170251 51 67 5.2 0.0 0.00 0.00 0.00 80 1056.3
20260505170138 51 22 4.3 0.0 0.00 0.00 0.00 80 1056.3
20260505170025 51 22 7.8 0.0 0.00 0.00 0.00 80 1056.4
20260505165904 51 45 8.7 0.0 0.00 0.00 0.00 80 1056.3
20260505165744 51 22 9.6 0.0 0.00 0.00 0.00 80 1056.2
20260505165631 52 0 13.0 0.0 0.00 0.00 0.00 80 1056.2
20260505165524 52 45 7.0 0.0 0.00 0.00 0.00 80 1056.2
20260505165413 52 22 3.5 0.0 0.00 0.00 0.00 80 1056.2
20260505165308 52 0 6.1 0.0 0.00 0.00 0.00 80 1056.2
20260505165204 52 337 7.8 0.0 0.00 0.00 0.00 79 1056.2
20260505165056 52 45 7.8 0.0 0.00 0.00 0.00 79 1056.2
20260505164934 52 22 5.2 0.0 0.00 0.00 0.00 79 1056.3
20260505164814 52 0 6.1 0.0 0.00 0.00 0.00 80 1056.2
20260505164701 52 45 5.2 0.0 0.00 0.00 0.00 80 1056.2
20260505164548 52 22 9.6 0.0 0.00 0.00 0.00 79 1056.3
20260505164436 52 22 11.3 0.0 0.00 0.00 0.00 79 1056.2
20260505164332 52 22 4.3 0.0 0.00 0.00 0.00 80 1056.3
20260505164223 52 22 5.2 0.0 0.00 0.00 0.00 80 1056.3
20260505164057 52 0 4.3 0.0 0.00 0.00 0.00 80 1056.3
20260505163949 52 0 8.7 0.0 0.00 0.00 0.00 80 1056.3
20260505163828 52 22 3.5 0.0 0.00 0.00 0.00 80 1056.3
20260505163700 52 0 5.2 0.0 0.00 0.00 0.00 79 1056.3
20260505163554 52 0 14.8 0.0 0.00 0.00 0.00 79 1056.3
20260505163434 52 0 7.8 0.0 0.00 0.00 0.00 79 1056.3
20260505163328 52 22 3.5 0.0 0.00 0.00 0.00 79 1056.3
20260505163207 52 0 7.8 0.0 0.00 0.00 0.00 79 1056.3
20260505163046 52 0 12.2 0.0 0.00 0.00 0.00 79 1056.3
20260505162932 52 337 7.0 0.0 0.00 0.00 0.00 78 1056.3
20260505162811 52 45 0.9 0.0 0.00 0.00 0.00 78 1056.3
20260505162657 52 22 8.7 0.0 0.00 0.00 0.00 78 1056.3
20260505162542 52 67 8.7 0.0 0.00 0.00 0.00 78 1056.3
20260505162430 52 0 7.8 0.0 0.00 0.00 0.00 78 1056.3
20260505162323 52 45 9.6 0.0 0.00 0.00 0.00 78 1056.4
20260505162209 52 45 12.2 0.0 0.00 0.00 0.00 78 1056.4
20260505162055 53 45 4.3 0.0 0.00 0.00 0.00 78 1056.3
20260505161925 52 0 5.2 0.0 0.00 0.00 0.00 78 1056.3
20260505161811 52 0 3.5 0.0 0.00 0.00 0.00 78 1056.4
20260505161655 52 22 0.0 0.0 0.00 0.00 0.00 78 1056.4
20260505161534 52 45 7.8 0.0 0.00 0.00 0.00 77 1056.4
20260505161419 52 45 5.2 0.0 0.00 0.00 0.00 77 1056.4
20260505161305 52 22 9.6 0.0 0.00 0.00 0.00 78 1056.3
20260505161150 52 0 9.6 0.0 0.00 0.00 0.00 77 1056.4
20260505161029 52 0 4.3 0.0 0.00 0.00 0.00 77 1056.4
20260505160914 52 22 13.9 0.0 0.00 0.00 0.00 77 1056.5
20260505160755 52 22 6.1 0.0 0.00 0.00 0.00 77 1056.4
20260505160646 52 22 5.2 0.0 0.00 0.00 0.00 77 1056.4
20260505160532 52 67 9.6 0.0 0.00 0.00 0.00 76 1056.5
20260505160417 52 0 6.1 0.0 0.00 0.00 0.00 76 1056.5
20260505160255 53 45 4.3 0.0 0.00 0.00 0.00 75 1056.4
20260505160142 53 22 12.2 0.0 0.00 0.00 0.00 75 1056.5
20260505153307 53 45 7.0 0.0 0.00 0.00 0.00 75 1056.5
20260505153154 53 22 1.7 0.0 0.00 0.00 0.00 74 1056.5
20260505153040 53 45 8.7 0.0 0.00 0.00 0.00 74 1056.6
20260505152918 53 45 7.8 0.0 0.00 0.00 0.00 74 1056.5
20260505152807 53 22 11.3 0.0 0.00 0.00 0.00 74 1056.5
20260505152701 53 45 7.8 0.0 0.00 0.00 0.00 74 1056.5
20260505152539 53 22 6.1 0.0 0.00 0.00 0.00 74 1056.6
20260505152418 53 0 5.2 0.0 0.00 0.00 0.00 73 1056.6
20260505152251 53 22 6.1 0.0 0.00 0.00 0.00 74 1056.6
20260505152144 53 0 10.4 0.0 0.00 0.00 0.00 74 1056.6
20260505152031 53 0 8.7 0.0 0.00 0.00 0.00 74 1056.7
20260505151925 53 67 2.6 0.0 0.00 0.00 0.00 74 1056.6
20260505151813 53 22 2.6 0.0 0.00 0.00 0.00 73 1056.6
20260505151700 53 22 5.2 0.0 0.00 0.00 0.00 73 1056.7
20260505151546 54 0 12.2 0.0 0.00 0.00 0.00 73 1056.6
20260505151433 54 0 9.6 0.0 0.00 0.00 0.00 74 1056.7
20260505151314 54 0 1.7 0.0 0.00 0.00 0.00 74 1056.7
20260505151159 54 337 5.2 0.0 0.00 0.00 0.00 74 1056.7
20260505151038 54 45 6.1 0.0 0.00 0.00 0.00 74 1056.7
20260505150919 54 0 5.2 0.0 0.00 0.00 0.00 74 1056.7
20260505150812 54 0 9.6 0.0 0.00 0.00 0.00 73 1056.6
20260505150659 54 0 14.8 0.0 0.00 0.00 0.00 73 1056.6
20260505150556 54 22 5.2 0.0 0.00 0.00 0.00 73 1056.7
20260505150446 54 337 7.0 0.0 0.00 0.00 0.00 73 1056.7
20260505150319 54 22 5.2 0.0 0.00 0.00 0.00 72 1056.6
20260505150158 54 0 13.9 0.0 0.00 0.00 0.00 73 1056.7
20260505140625 56 90 5.2 0.0 0.00 0.00 0.00 71 1056.9
20260505140512 56 22 2.6 0.0 0.00 0.00 0.00 70 1056.9
20260505140406 56 22 3.5 0.0 0.00 0.00 0.00 70 1056.9
20260505140301 56 0 5.2 0.0 0.00 0.00 0.00 70 1057.0
20260505140140 56 22 6.1 0.0 0.00 0.00 0.00 70 1056.9
20260505130304 55 67 1.7 0.0 0.00 0.00 0.00 72 1057.2
20260505130150 55 22 4.3 0.0 0.00 0.00 0.00 73 1057.2
20260505125004 54 0 4.3 0.0 0.00 0.00 0.00 75 1057.3
20260505124853 53 22 3.5 0.0 0.00 0.00 0.00 75 1057.2
20260505124746 53 45 5.2 0.0 0.00 0.00 0.00 75 1057.3
20260505124633 53 45 1.7 0.0 0.00 0.00 0.00 75 1057.3
20260505124503 53 22 5.2 0.0 0.00 0.00 0.00 75 1057.3
20260505124351 53 22 6.1 0.0 0.00 0.00 0.00 76 1057.3
20260505124245 53 22 4.3 0.0 0.00 0.00 0.00 76 1057.3
20260505124124 53 22 2.6 0.0 0.00 0.00 0.00 75 1057.3
20260505124014 53 22 7.0 0.0 0.00 0.00 0.00 76 1057.3
20260505123906 53 22 2.6 0.0 0.00 0.00 0.00 76 1057.3
20260505123753 53 45 4.3 0.0 0.00 0.00 0.00 75 1057.3
20260505123647 53 0 4.3 0.0 0.00 0.00 0.00 76 1057.3
20260505123517 53 22 4.3 0.0 0.00 0.00 0.00 76 1057.3
20260505123403 53 45 4.3 0.0 0.00 0.00 0.00 75 1057.3
20260505123257 53 22 3.5 0.0 0.00 0.00 0.00 75 1057.4
20260505123152 53 0 8.7 0.0 0.00 0.00 0.00 74 1057.4
20260505123047 53 45 9.6 0.0 0.00 0.00 0.00 74 1057.4
20260505122942 53 45 10.4 0.0 0.00 0.00 0.00 75 1057.4
20260505122836 53 0 5.2 0.0 0.00 0.00 0.00 74 1057.4
20260505122726 53 45 5.2 0.0 0.00 0.00 0.00 74 1057.4
20260505122620 53 45 10.4 0.0 0.00 0.00 0.00 74 1057.4
20260505122514 53 90 5.2 0.0 0.00 0.00 0.00 74 1057.4
20260505122352 53 22 9.6 0.0 0.00 0.00 0.00 74 1057.5
20260505122239 53 0 7.0 0.0 0.00 0.00 0.00 75 1057.4
20260505122117 53 45 3.5 0.0 0.00 0.00 0.00 74 1057.4
20260505122005 53 45 2.6 0.0 0.00 0.00 0.00 74 1057.4
20260505121851 53 22 6.1 0.0 0.00 0.00 0.00 74 1057.4
20260505121738 53 45 5.2 0.0 0.00 0.00 0.00 74 1057.4
20260505121619 53 0 2.6 0.0 0.00 0.00 0.00 74 1057.4
20260505121512 53 0 5.2 0.0 0.00 0.00 0.00 74 1057.3
20260505121359 53 45 7.0 0.0 0.00 0.00 0.00 74 1057.4
20260505121245 53 0 4.3 0.0 0.00 0.00 0.00 73 1057.3
20260505121124 53 45 2.6 0.0 0.00 0.00 0.00 73 1057.4
20260505121003 53 45 6.1 0.0 0.00 0.00 0.00 73 1057.4
20260505120852 53 22 7.8 0.0 0.00 0.00 0.00 73 1057.4
20260505120747 53 45 6.1 0.0 0.00 0.00 0.00 72 1057.4
20260505120642 53 45 7.0 0.0 0.00 0.00 0.00 73 1057.3
20260505120520 54 22 5.2 0.0 0.00 0.00 0.00 72 1057.4
20260505120414 54 45 3.5 0.0 0.00 0.00 0.00 71 1057.3
20260505120308 54 45 4.3 0.0 0.00 0.00 0.00 71 1057.3
20260505120201 54 337 3.5 0.0 0.00 0.00 0.00 71 1057.3
20260505120048 54 67 9.6 0.0 0.00 0.00 0.00 71 1057.4
20260505115935 54 0 4.3 0.0 0.00 0.00 0.00 71 1057.4
20260505115805 54 45 9.6 0.0 0.00 0.00 0.00 70 1057.4
20260505115644 55 0 5.2 0.0 0.00 0.00 0.00 69 1057.4
20260505115532 55 45 8.7 0.0 0.00 0.00 0.00 69 1057.3
20260505115426 55 22 6.1 0.0 0.00 0.00 0.00 70 1057.4
20260505115313 55 22 2.6 0.0 0.00 0.00 0.00 70 1057.4
20260505115201 55 45 4.3 0.0 0.00 0.00 0.00 70 1057.4
20260505115054 55 22 7.8 0.0 0.00 0.00 0.00 70 1057.3
20260505114934 55 22 2.6 0.0 0.00 0.00 0.00 69 1057.4
20260505114829 55 22 7.0 0.0 0.00 0.00 0.00 69 1057.4
20260505114707 55 67 6.1 0.0 0.00 0.00 0.00 69 1057.3
20260505114542 55 45 5.2 0.0 0.00 0.00 0.00 69 1057.3
20260505114433 55 0 5.2 0.0 0.00 0.00 0.00 69 1057.3
20260505114312 55 337 5.2 0.0 0.00 0.00 0.00 69 1057.3
20260505114159 55 45 8.7 0.0 0.00 0.00 0.00 68 1057.3
20260505114038 55 0 5.2 0.0 0.00 0.00 0.00 68 1057.3
20260505113933 55 22 7.8 0.0 0.00 0.00 0.00 68 1057.3
20260505113828 55 22 6.1 0.0 0.00 0.00 0.00 69 1057.3
20260505113714 55 45 4.3 0.0 0.00 0.00 0.00 69 1057.3
20260505113601 55 45 10.4 0.0 0.00 0.00 0.00 69 1057.3
20260505113440 55 22 3.5 0.0 0.00 0.00 0.00 71 1057.3
20260505113321 55 45 5.2 0.0 0.00 0.00 0.00 71 1057.3
20260505113214 55 22 5.2 0.0 0.00 0.00 0.00 71 1057.3
20260505113109 55 67 6.1 0.0 0.00 0.00 0.00 71 1057.3
20260505113003 54 22 1.7 0.0 0.00 0.00 0.00 70 1057.3
20260505112835 54 45 5.2 0.0 0.00 0.00 0.00 70 1057.3
20260505112730 54 45 4.3 0.0 0.00 0.00 0.00 70 1057.3
20260505112624 54 67 7.8 0.0 0.00 0.00 0.00 69 1057.3
20260505112511 54 67 13.0 0.0 0.00 0.00 0.00 71 1057.3
20260505112406 54 45 2.6 0.0 0.00 0.00 0.00 70 1057.3
20260505112252 54 112 5.2 0.0 0.00 0.00 0.00 71 1057.3
20260505112140 54 0 4.3 0.0 0.00 0.00 0.00 71 1057.3
20260505112027 54 22 7.0 0.0 0.00 0.00 0.00 71 1057.3
20260505111912 54 0 3.5 0.0 0.00 0.00 0.00 71 1057.3
20260505111759 54 90 3.5 0.0 0.00 0.00 0.00 71 1057.4
20260505111645 54 0 4.3 0.0 0.00 0.00 0.00 71 1057.3
20260505111533 54 90 6.1 0.0 0.00 0.00 0.00 71 1057.4
20260505111426 54 22 5.2 0.0 0.00 0.00 0.00 72 1057.4
20260505111321 54 22 6.1 0.0 0.00 0.00 0.00 72 1057.4
20260505111208 53 45 6.1 0.0 0.00 0.00 0.00 73 1057.3
20260505111102 53 337 3.5 0.0 0.00 0.00 0.00 73 1057.3
20260505110958 53 22 6.1 0.0 0.00 0.00 0.00 73 1057.3
20260505110852 53 22 4.3 0.0 0.00 0.00 0.00 73 1057.3
20260505110732 53 22 3.5 0.0 0.00 0.00 0.00 73 1057.3
20260505110626 53 0 3.5 0.0 0.00 0.00 0.00 73 1057.2
20260505110505 53 45 4.3 0.0 0.00 0.00 0.00 73 1057.2
20260505110335 53 22 2.6 0.0 0.00 0.00 0.00 74 1057.3
20260505110223 53 45 2.6 0.0 0.00 0.00 0.00 73 1057.3
20260505110110 53 67 5.2 0.0 0.00 0.00 0.00 73 1057.3
20260505102153 52 22 2.6 0.0 0.00 0.00 0.00 74 1057.3
20260505102040 52 22 3.5 0.0 0.00 0.00 0.00 74 1057.5
20260505101926 52 45 6.1 0.0 0.00 0.00 0.00 73 1057.4
20260505101807 52 22 10.4 0.0 0.00 0.00 0.00 73 1057.4
20260505101701 52 22 5.2 0.0 0.00 0.00 0.00 73 1057.5
20260505101548 52 22 5.2 0.0 0.00 0.00 0.00 73 1057.4
20260505101442 52 90 0.9 0.0 0.00 0.00 0.00 73 1057.5
20260505101337 52 22 5.2 0.0 0.00 0.00 0.00 73 1057.5
20260505101208 52 0 5.2 0.0 0.00 0.00 0.00 74 1057.5
20260505101054 52 90 4.3 0.0 0.00 0.00 0.00 74 1057.5
20260505100934 52 67 5.2 0.0 0.00 0.00 0.00 74 1057.5
20260505100820 52 22 2.6 0.0 0.00 0.00 0.00 74 1057.5
20260505100707 52 45 6.1 0.0 0.00 0.00 0.00 74 1057.5
20260505100603 52 22 9.6 0.0 0.00 0.00 0.00 75 1057.5
20260505100458 52 22 5.2 0.0 0.00 0.00 0.00 74 1057.5
20260505100338 52 22 1.7 0.0 0.00 0.00 0.00 74 1057.6
20260505100223 52 67 6.1 0.0 0.00 0.00 0.00 74 1057.6
20260505100110 52 22 6.1 0.0 0.00 0.00 0.00 74 1057.5
20260505100005 52 22 7.8 0.0 0.00 0.00 0.00 75 1057.7
20260505095846 52 22 2.6 0.0 0.00 0.00 0.00 75 1057.7
20260505095741 52 22 1.7 0.0 0.00 0.00 0.00 75 1057.8
20260505095636 52 22 1.7 0.0 0.00 0.00 0.00 75 1057.7
20260505095521 52 22 3.5 0.0 0.00 0.00 0.00 74 1057.8
20260505095407 52 67 4.3 0.0 0.00 0.00 0.00 74 1057.8
20260505095247 52 0 7.8 0.0 0.00 0.00 0.00 74 1057.9
20260505095141 52 22 5.2 0.0 0.00 0.00 0.00 74 1057.8
20260505095028 52 22 4.3 0.0 0.00 0.00 0.00 75 1057.9
20260505094923 52 22 1.7 0.0 0.00 0.00 0.00 75 1057.9
20260505094810 52 90 4.3 0.0 0.00 0.00 0.00 75 1057.9
20260505094705 52 45 3.5 0.0 0.00 0.00 0.00 75 1057.9
20260505094552 52 0 6.1 0.0 0.00 0.00 0.00 75 1057.9
20260505094441 52 67 3.5 0.0 0.00 0.00 0.00 75 1058.0
20260505094334 52 22 3.5 0.0 0.00 0.00 0.00 75 1057.9
20260505094221 52 45 7.0 0.0 0.00 0.00 0.00 74 1058.0
20260505094107 52 45 6.1 0.0 0.00 0.00 0.00 75 1058.0
20260505093954 52 45 5.2 0.0 0.00 0.00 0.00 75 1058.0
20260505093833 52 22 7.0 0.0 0.00 0.00 0.00 75 1058.1
20260505093711 52 0 2.6 0.0 0.00 0.00 0.00 75 1058.1
20260505093550 52 22 0.0 0.0 0.00 0.00 0.00 75 1058.1
20260505093437 51 45 0.0 0.0 0.00 0.00 0.00 75 1058.1
20260505093331 52 90 7.0 0.0 0.00 0.00 0.00 75 1058.1
20260505093225 52 90 8.7 0.0 0.00 0.00 0.00 75 1058.1
20260505093111 52 45 3.5 0.0 0.00 0.00 0.00 75 1058.1
20260505092951 52 22 5.2 0.0 0.00 0.00 0.00 75 1058.0
20260505092845 52 22 2.6 0.0 0.00 0.00 0.00 75 1058.1
20260505092732 52 22 6.1 0.0 0.00 0.00 0.00 75 1058.1
20260505092626 52 22 4.3 0.0 0.00 0.00 0.00 76 1058.1
20260505092506 52 45 3.5 0.0 0.00 0.00 0.00 76 1058.2
20260505092354 52 45 1.7 0.0 0.00 0.00 0.00 75 1058.2
20260505092248 52 22 9.6 0.0 0.00 0.00 0.00 75 1058.1
20260505092142 52 45 6.1 0.0 0.00 0.00 0.00 75 1058.2
20260505092029 52 22 4.3 0.0 0.00 0.00 0.00 75 1058.0
20260505091925 52 22 6.1 0.0 0.00 0.00 0.00 75 1058.1
20260505091819 52 45 3.5 0.0 0.00 0.00 0.00 76 1058.1
20260505091715 52 292 4.3 0.0 0.00 0.00 0.00 76 1058.2
20260505091608 52 22 0.0 0.0 0.00 0.00 0.00 76 1058.1
20260505091503 52 45 2.6 0.0 0.00 0.00 0.00 76 1058.2
20260505091357 52 22 4.3 0.0 0.00 0.00 0.00 76 1058.1
20260505091251 51 45 7.8 0.0 0.00 0.00 0.00 76 1058.1
20260505091145 51 0 5.2 0.0 0.00 0.00 0.00 76 1058.2
20260505091024 51 22 7.8 0.0 0.00 0.00 0.00 76 1058.1
20260505090910 51 22 2.6 0.0 0.00 0.00 0.00 76 1058.1
20260505090750 51 45 1.7 0.0 0.00 0.00 0.00 76 1058.1
20260505090646 51 67 0.9 0.0 0.00 0.00 0.00 75 1058.3
20260505090540 51 45 4.3 0.0 0.00 0.00 0.00 76 1058.2
20260505090432 51 22 5.2 0.0 0.00 0.00 0.00 76 1058.2
20260505090159 51 22 6.1 0.0 0.00 0.00 0.00 76 1058.2
20260505090054 51 22 6.1 0.0 0.00 0.00 0.00 76 1058.1
20260505085810 51 67 6.1 0.0 0.00 0.00 0.00 75 1058.0
20260505085705 51 45 3.5 0.0 0.00 0.00 0.00 75 1058.1
20260505085540 51 337 3.5 0.0 0.00 0.00 0.00 75 1058.1
20260505085429 51 22 7.0 0.0 0.00 0.00 0.00 75 1058.0
20260505085308 51 45 7.0 0.0 0.00 0.00 0.00 75 1058.1
20260505085139 51 0 7.0 0.0 0.00 0.00 0.00 75 1058.1
20260505085034 51 22 5.2 0.0 0.00 0.00 0.00 75 1058.1
20260505084928 51 0 5.2 0.0 0.00 0.00 0.00 75 1058.1
20260505084823 51 22 2.6 0.0 0.00 0.00 0.00 75 1058.1
20260505084719 51 45 12.2 0.0 0.00 0.00 0.00 75 1058.2
20260505084613 51 45 7.0 0.0 0.00 0.00 0.00 75 1058.1
20260505084508 51 45 3.5 0.0 0.00 0.00 0.00 75 1058.1
20260505084355 51 22 2.6 0.0 0.00 0.00 0.00 75 1058.0
20260505084234 52 45 7.0 0.0 0.00 0.00 0.00 75 1058.1
20260505084129 52 0 5.2 0.0 0.00 0.00 0.00 75 1058.1
20260505084015 52 45 4.3 0.0 0.00 0.00 0.00 75 1058.2
20260505083910 52 0 3.5 0.0 0.00 0.00 0.00 75 1058.2
20260505083804 52 22 2.6 0.0 0.00 0.00 0.00 75 1058.2
20260505083650 52 45 4.3 0.0 0.00 0.00 0.00 75 1058.2
20260505083537 52 22 5.2 0.0 0.00 0.00 0.00 75 1058.1
20260505083415 51 45 10.4 0.0 0.00 0.00 0.00 75 1058.1
20260505083246 51 90 2.6 0.0 0.00 0.00 0.00 75 1058.2
20260505083134 51 45 5.2 0.0 0.00 0.00 0.00 75 1058.0
20260505083028 51 22 7.0 0.0 0.00 0.00 0.00 75 1058.1
20260505082918 51 45 4.3 0.0 0.00 0.00 0.00 75 1058.1
20260505082812 51 22 4.3 0.0 0.00 0.00 0.00 75 1058.0
20260505082657 52 22 8.7 0.0 0.00 0.00 0.00 75 1058.1
20260505082537 52 22 5.2 0.0 0.00 0.00 0.00 75 1058.0
20260505082430 52 45 7.8 0.0 0.00 0.00 0.00 75 1058.0
20260505082311 51 45 1.7 0.0 0.00 0.00 0.00 76 1058.0
20260505082205 51 0 4.3 0.0 0.00 0.00 0.00 75 1058.0
20260505082058 51 22 4.3 0.0 0.00 0.00 0.00 75 1058.0
20260505081946 51 0 3.5 0.0 0.00 0.00 0.00 75 1058.0
20260505081833 51 0 3.5 0.0 0.00 0.00 0.00 75 1058.0
20260505081719 51 22 6.1 0.0 0.00 0.00 0.00 76 1057.9
20260505081605 51 45 5.2 0.0 0.00 0.00 0.00 75 1058.0
20260505081445 51 45 3.5 0.0 0.00 0.00 0.00 75 1058.0
20260505081340 51 45 6.1 0.0 0.00 0.00 0.00 75 1058.0
20260505081233 51 22 4.3 0.0 0.00 0.00 0.00 75 1058.0
20260505081115 51 22 6.1 0.0 0.00 0.00 0.00 75 1058.1
20260505081007 51 45 5.2 0.0 0.00 0.00 0.00 75 1058.0
20260505080855 51 45 8.7 0.0 0.00 0.00 0.00 75 1058.0
20260505080742 51 22 2.6 0.0 0.00 0.00 0.00 75 1058.1
20260505080622 51 45 11.3 0.0 0.00 0.00 0.00 76 1058.0
20260505080515 51 0 3.5 0.0 0.00 0.00 0.00 76 1058.0
20260505080410 51 90 3.5 0.0 0.00 0.00 0.00 76 1058.1
20260505080302 51 22 2.6 0.0 0.00 0.00 0.00 76 1058.1
20260505080149 51 45 4.3 0.0 0.00 0.00 0.00 76 1058.1
20260505080036 51 45 2.6 0.0 0.00 0.00 0.00 76 1058.1
20260505075930 51 0 5.2 0.0 0.00 0.00 0.00 76 1058.1
20260505075824 51 22 3.5 0.0 0.00 0.00 0.00 76 1058.1
20260505075712 51 45 0.0 0.0 0.00 0.00 0.00 76 1058.0
20260505075553 51 22 5.2 0.0 0.00 0.00 0.00 76 1058.0
20260505075446 51 90 1.7 0.0 0.00 0.00 0.00 76 1058.0
20260505075333 51 112 4.3 0.0 0.00 0.00 0.00 76 1058.0
20260505075228 51 90 2.6 0.0 0.00 0.00 0.00 76 1058.1
20260505075114 51 45 0.0 0.0 0.00 0.00 0.00 76 1058.0
20260505074945 51 22 4.3 0.0 0.00 0.00 0.00 76 1058.0
20260505074840 51 45 8.7 0.0 0.00 0.00 0.00 76 1058.0
20260505074735 51 0 7.0 0.0 0.00 0.00 0.00 77 1058.0
20260505074629 51 45 8.7 0.0 0.00 0.00 0.00 77 1058.0
20260505074523 51 45 4.3 0.0 0.00 0.00 0.00 77 1058.0
20260505074409 51 45 5.2 0.0 0.00 0.00 0.00 77 1058.0
20260505074301 50 22 2.6 0.0 0.00 0.00 0.00 76 1058.0
20260505074140 50 45 7.0 0.0 0.00 0.00 0.00 76 1058.0
20260505074026 50 90 7.0 0.0 0.00 0.00 0.00 76 1058.0
20260505073919 50 45 7.8 0.0 0.00 0.00 0.00 77 1058.0
20260505073814 50 45 3.5 0.0 0.00 0.00 0.00 77 1058.0
20260505073709 50 90 4.3 0.0 0.00 0.00 0.00 77 1058.0
20260505073602 50 45 5.2 0.0 0.00 0.00 0.00 77 1058.0
20260505073455 50 45 6.1 0.0 0.00 0.00 0.00 76 1058.0
20260505073341 50 90 4.3 0.0 0.00 0.00 0.00 76 1058.0
20260505073220 50 45 2.6 0.0 0.00 0.00 0.00 76 1058.0
20260505073114 50 45 7.0 0.0 0.00 0.00 0.00 76 1058.0
20260505073007 50 0 6.1 0.0 0.00 0.00 0.00 77 1058.1
20260505072854 50 67 6.1 0.0 0.00 0.00 0.00 78 1058.1
20260505072749 50 67 4.3 0.0 0.00 0.00 0.00 78 1058.1
20260505072643 50 67 4.3 0.0 0.00 0.00 0.00 78 1058.1
20260505072535 50 0 5.2 0.0 0.00 0.00 0.00 78 1058.0
20260505072422 50 112 5.2 0.0 0.00 0.00 0.00 78 1058.1
20260505072309 50 45 3.5 0.0 0.00 0.00 0.00 78 1058.0
20260505072159 50 67 0.0 0.0 0.00 0.00 0.00 78 1058.0
20260505072052 50 67 2.6 0.0 0.00 0.00 0.00 78 1058.0
20260505071946 50 45 0.0 0.0 0.00 0.00 0.00 78 1058.1
20260505071833 50 45 3.5 0.0 0.00 0.00 0.00 78 1058.0
20260505071727 50 67 3.5 0.0 0.00 0.00 0.00 78 1058.0
20260505071615 50 22 2.6 0.0 0.00 0.00 0.00 78 1058.0
20260505071502 50 45 3.5 0.0 0.00 0.00 0.00 78 1058.1
20260505071351 50 22 4.3 0.0 0.00 0.00 0.00 79 1058.1
20260505071243 50 22 0.0 0.0 0.00 0.00 0.00 79 1058.1
20260505071131 50 90 2.6 0.0 0.00 0.00 0.00 79 1058.1
20260505071025 50 112 0.0 0.0 0.00 0.00 0.00 79 1058.1
20260505070913 49 45 1.7 0.0 0.00 0.00 0.00 80 1058.1
20260505070759 49 67 2.6 0.0 0.00 0.00 0.00 80 1058.1
20260505070646 49 67 0.0 0.0 0.00 0.00 0.00 80 1058.1
20260505070533 49 67 5.2 0.0 0.00 0.00 0.00 80 1058.1
20260505070429 49 45 6.1 0.0 0.00 0.00 0.00 80 1058.2
20260505070323 49 22 5.2 0.0 0.00 0.00 0.00 80 1058.1
20260505070218 49 90 3.5 0.0 0.00 0.00 0.00 80 1058.1
20260505070113 49 67 3.5 0.0 0.00 0.00 0.00 79 1058.0
20260505070000 49 67 0.9 0.0 0.00 0.00 0.00 79 1058.1
20260505065855 49 67 0.9 0.0 0.00 0.00 0.00 80 1058.1
20260505065742 49 22 6.1 0.0 0.00 0.00 0.00 80 1058.1
20260505065630 49 67 0.9 0.0 0.00 0.00 0.00 80 1058.2
20260505065526 49 45 5.2 0.0 0.00 0.00 0.00 80 1058.1
20260505065418 49 45 3.5 0.0 0.00 0.00 0.00 80 1058.1
20260505065259 49 67 0.0 0.0 0.00 0.00 0.00 80 1058.2
20260505065152 49 22 6.1 0.0 0.00 0.00 0.00 80 1058.1
20260505065039 49 45 4.3 0.0 0.00 0.00 0.00 80 1058.1
20260505064928 49 45 7.0 0.0 0.00 0.00 0.00 80 1058.1
20260505064821 49 45 1.7 0.0 0.00 0.00 0.00 80 1058.2
20260505064709 49 45 7.8 0.0 0.00 0.00 0.00 80 1058.2
20260505064603 49 0 5.2 0.0 0.00 0.00 0.00 80 1058.2
20260505064450 49 45 2.6 0.0 0.00 0.00 0.00 80 1058.2
20260505064345 49 22 7.0 0.0 0.00 0.00 0.00 80 1058.2
20260505064224 49 22 3.5 0.0 0.00 0.00 0.00 80 1058.2
20260505064111 49 0 2.6 0.0 0.00 0.00 0.00 80 1058.1
20260505063957 49 67 3.5 0.0 0.00 0.00 0.00 80 1058.1
20260505063836 49 0 4.3 0.0 0.00 0.00 0.00 80 1058.2
20260505063723 49 67 5.2 0.0 0.00 0.00 0.00 80 1058.2
20260505063602 49 22 5.2 0.0 0.00 0.00 0.00 81 1058.2
20260505063440 49 22 4.3 0.0 0.00 0.00 0.00 81 1058.1
20260505063311 49 22 5.2 0.0 0.00 0.00 0.00 81 1058.2
20260505063142 49 67 3.5 0.0 0.00 0.00 0.00 81 1058.1
20260505063030 49 45 2.6 0.0 0.00 0.00 0.00 81 1058.2
20260505062925 49 22 1.7 0.0 0.00 0.00 0.00 81 1058.2
20260505062822 48 45 4.3 0.0 0.00 0.00 0.00 81 1058.2
20260505062716 48 45 0.0 0.0 0.00 0.00 0.00 81 1058.2
20260505062608 48 45 2.6 0.0 0.00 0.00 0.00 81 1058.3
20260505062439 48 45 0.0 0.0 0.00 0.00 0.00 81 1058.3
20260505062318 48 45 4.3 0.0 0.00 0.00 0.00 81 1058.3
20260505062149 48 90 1.7 0.0 0.00 0.00 0.00 81 1058.3
20260505062035 48 90 4.3 0.0 0.00 0.00 0.00 81 1058.3
20260505061858 48 45 5.2 0.0 0.00 0.00 0.00 80 1058.3
20260505061615 48 45 5.2 0.0 0.00 0.00 0.00 80 1058.2
20260505061451 48 45 3.5 0.0 0.00 0.00 0.00 80 1058.4
20260505061236 48 45 1.7 0.0 0.00 0.00 0.00 80 1058.4
20260505061107 48 45 2.6 0.0 0.00 0.00 0.00 80 1058.3
20260505060946 48 45 6.1 0.0 0.00 0.00 0.00 80 1058.3
20260505060832 48 90 2.6 0.0 0.00 0.00 0.00 80 1058.3
20260505060712 48 22 4.3 0.0 0.00 0.00 0.00 80 1058.3
20260505060558 48 45 5.2 0.0 0.00 0.00 0.00 81 1058.3
20260505060429 48 67 5.2 0.0 0.00 0.00 0.00 81 1058.3
20260505060315 48 22 2.6 0.0 0.00 0.00 0.00 81 1058.2
20260505060138 48 45 4.3 0.0 0.00 0.00 0.00 81 1058.2
20260505060026 48 67 3.5 0.0 0.00 0.00 0.00 81 1058.2
20260505055920 48 90 3.5 0.0 0.00 0.00 0.00 81 1058.1
20260505055801 48 67 1.7 0.0 0.00 0.00 0.00 81 1058.1
20260505055654 48 90 4.3 0.0 0.00 0.00 0.00 81 1058.0
20260505055542 48 45 10.4 0.0 0.00 0.00 0.00 81 1058.0
20260505055435 48 45 1.7 0.0 0.00 0.00 0.00 81 1058.2
20260505055314 48 67 3.5 0.0 0.00 0.00 0.00 81 1058.1
20260505055155 48 45 6.1 0.0 0.00 0.00 0.00 81 1058.1
20260505055048 48 67 0.0 0.0 0.00 0.00 0.00 81 1058.1
20260505054922 48 45 3.5 0.0 0.00 0.00 0.00 81 1058.2
20260505054815 48 45 2.6 0.0 0.00 0.00 0.00 81 1058.4
20260505054419 48 67 4.3 0.0 0.00 0.00 0.00 81 1058.3
20260505054313 48 45 0.0 0.0 0.00 0.00 0.00 81 1058.3
20260505054144 48 90 2.6 0.0 0.00 0.00 0.00 81 1058.3
20260505054022 48 45 5.2 0.0 0.00 0.00 0.00 81 1058.3
20260505053902 48 67 4.3 0.0 0.00 0.00 0.00 81 1058.3
20260505053741 48 45 4.3 0.0 0.00 0.00 0.00 81 1058.2
20260505053635 48 45 0.0 0.0 0.00 0.00 0.00 81 1058.3
20260505053505 48 22 5.2 0.0 0.00 0.00 0.00 81 1058.1
20260505053353 48 90 1.7 0.0 0.00 0.00 0.00 81 1058.3
20260505053231 48 112 3.5 0.0 0.00 0.00 0.00 81 1058.2
20260505053102 48 67 1.7 0.0 0.00 0.00 0.00 81 1058.2
20260505052940 48 112 0.0 0.0 0.00 0.00 0.00 81 1058.2
20260505052813 48 45 2.6 0.0 0.00 0.00 0.00 81 1058.2
20260505052658 48 90 1.7 0.0 0.00 0.00 0.00 81 1058.2
20260505052537 48 45 4.3 0.0 0.00 0.00 0.00 81 1058.2
20260505052407 48 45 7.0 0.0 0.00 0.00 0.00 81 1058.3
20260505052238 48 90 3.5 0.0 0.00 0.00 0.00 82 1058.1
20260505052111 48 67 7.0 0.0 0.00 0.00 0.00 82 1058.1
20260505052004 48 45 5.2 0.0 0.00 0.00 0.00 82 1058.1
20260505051851 48 45 3.5 0.0 0.00 0.00 0.00 82 1058.1
20260505051737 48 45 1.7 0.0 0.00 0.00 0.00 82 1058.1
20260505051619 48 45 5.2 0.0 0.00 0.00 0.00 82 1058.1
20260505051512 48 45 3.5 0.0 0.00 0.00 0.00 82 1058.1
20260505051350 48 45 3.5 0.0 0.00 0.00 0.00 82 1058.1
20260505051229 48 90 3.5 0.0 0.00 0.00 0.00 82 1058.1
20260505051116 48 45 1.7 0.0 0.00 0.00 0.00 82 1058.0
20260505051003 48 90 0.0 0.0 0.00 0.00 0.00 82 1058.0
20260505050841 48 22 2.6 0.0 0.00 0.00 0.00 82 1058.1
20260505050722 48 45 1.7 0.0 0.00 0.00 0.00 82 1058.1
20260505050615 48 67 0.0 0.0 0.00 0.00 0.00 82 1058.1
20260505050456 48 67 4.3 0.0 0.00 0.00 0.00 82 1058.1
20260505050351 48 45 4.3 0.0 0.00 0.00 0.00 82 1058.0
20260505050243 48 67 0.0 0.0 0.00 0.00 0.00 82 1058.1
20260505050131 47 90 7.8 0.0 0.00 0.00 0.00 82 1058.1
20260505041730 47 22 3.5 0.0 0.00 0.00 0.00 83 1057.9
20260505041608 47 45 6.1 0.0 0.00 0.00 0.00 83 1057.9
20260505041455 47 22 5.2 0.0 0.00 0.00 0.00 83 1058.0
20260505041341 47 67 5.2 0.0 0.00 0.00 0.00 83 1057.9
20260505041213 47 45 4.3 0.0 0.00 0.00 0.00 83 1057.8
20260505041044 47 45 3.5 0.0 0.00 0.00 0.00 83 1057.8
20260505040930 47 45 1.7 0.0 0.00 0.00 0.00 83 1057.9
20260505040812 47 22 5.2 0.0 0.00 0.00 0.00 83 1057.9
20260505040656 47 45 1.7 0.0 0.00 0.00 0.00 83 1057.8
20260505040543 47 22 3.5 0.0 0.00 0.00 0.00 83 1057.9
20260505040431 47 0 1.7 0.0 0.00 0.00 0.00 83 1057.8
20260505040324 47 0 3.5 0.0 0.00 0.00 0.00 83 1057.8
20260505040211 47 45 6.1 0.0 0.00 0.00 0.00 83 1057.8
20260505040051 47 0 6.1 0.0 0.00 0.00 0.00 83 1057.8
20260505035945 47 0 2.6 0.0 0.00 0.00 0.00 83 1057.8
20260505035832 47 45 3.5 0.0 0.00 0.00 0.00 83 1057.7
20260505035710 47 67 0.0 0.0 0.00 0.00 0.00 83 1057.8
20260505035558 47 22 4.3 0.0 0.00 0.00 0.00 83 1057.8
20260505035436 47 22 4.3 0.0 0.00 0.00 0.00 83 1057.9
20260505035316 47 0 3.5 0.0 0.00 0.00 0.00 83 1057.8
20260505035202 47 45 5.2 0.0 0.00 0.00 0.00 83 1057.8
20260505035042 47 22 5.2 0.0 0.00 0.00 0.00 83 1057.8
20260505034929 47 22 2.6 0.0 0.00 0.00 0.00 83 1057.9
20260505034824 47 45 4.3 0.0 0.00 0.00 0.00 83 1057.9
20260505034711 47 45 1.7 0.0 0.00 0.00 0.00 83 1057.8
20260505034606 47 22 5.2 0.0 0.00 0.00 0.00 83 1057.9
20260505034454 47 0 3.5 0.0 0.00 0.00 0.00 83 1057.8
20260505034338 47 45 5.2 0.0 0.00 0.00 0.00 83 1057.8
20260505034226 47 90 4.3 0.0 0.00 0.00 0.00 83 1057.9
20260505034104 47 90 8.7 0.0 0.00 0.00 0.00 83 1057.8
20260505033951 47 22 5.2 0.0 0.00 0.00 0.00 83 1057.8
20260505033832 47 22 4.3 0.0 0.00 0.00 0.00 83 1057.9
20260505033724 47 22 8.7 0.0 0.00 0.00 0.00 83 1057.9
20260505033605 47 0 0.0 0.0 0.00 0.00 0.00 83 1057.9
20260505033458 47 45 6.1 0.0 0.00 0.00 0.00 83 1057.8
20260505033344 47 0 1.7 0.0 0.00 0.00 0.00 83 1057.9
20260505033216 47 22 2.6 0.0 0.00 0.00 0.00 83 1057.8
20260505033103 47 67 6.1 0.0 0.00 0.00 0.00 83 1057.8
20260505032949 47 45 5.2 0.0 0.00 0.00 0.00 83 1057.9
20260505032838 47 0 6.1 0.0 0.00 0.00 0.00 83 1057.9
20260505032731 47 67 4.3 0.0 0.00 0.00 0.00 83 1058.0
20260505032618 47 45 3.5 0.0 0.00 0.00 0.00 84 1057.9
20260505032512 47 22 1.7 0.0 0.00 0.00 0.00 84 1058.0
20260505032359 47 22 7.0 0.0 0.00 0.00 0.00 84 1057.9
20260505032238 47 22 5.2 0.0 0.00 0.00 0.00 84 1058.0
20260505032133 47 22 5.2 0.0 0.00 0.00 0.00 84 1058.0
20260505032020 47 45 4.3 0.0 0.00 0.00 0.00 84 1058.0
20260505031858 47 67 6.1 0.0 0.00 0.00 0.00 84 1057.9
20260505031740 47 67 6.1 0.0 0.00 0.00 0.00 84 1058.0
20260505031632 47 22 5.2 0.0 0.00 0.00 0.00 84 1058.0
20260505031510 47 67 6.1 0.0 0.00 0.00 0.00 84 1058.0
20260505031352 47 22 4.3 0.0 0.00 0.00 0.00 84 1058.1
20260505031245 47 45 2.6 0.0 0.00 0.00 0.00 84 1058.0
20260505031131 47 22 3.5 0.0 0.00 0.00 0.00 84 1058.1
20260505031010 47 22 6.1 0.0 0.00 0.00 0.00 84 1058.0
20260505030849 48 22 0.0 0.0 0.00 0.00 0.00 84 1058.2
20260505030744 48 45 0.9 0.0 0.00 0.00 0.00 84 1058.1
20260505030631 48 22 2.6 0.0 0.00 0.00 0.00 83 1058.1
20260505030509 48 0 3.5 0.0 0.00 0.00 0.00 84 1058.2
20260505030356 48 67 4.3 0.0 0.00 0.00 0.00 84 1058.1
20260505030244 48 22 2.6 0.0 0.00 0.00 0.00 83 1058.2
20260505030136 48 22 4.3 0.0 0.00 0.00 0.00 84 1058.1
20260505030017 48 22 3.5 0.0 0.00 0.00 0.00 84 1058.1
20260505025908 48 22 4.3 0.0 0.00 0.00 0.00 84 1058.1
20260505025754 48 0 3.5 0.0 0.00 0.00 0.00 84 1058.2
20260505025648 48 22 4.3 0.0 0.00 0.00 0.00 84 1058.1
20260505025525 48 45 3.5 0.0 0.00 0.00 0.00 84 1058.1
20260505025411 48 0 2.6 0.0 0.00 0.00 0.00 84 1058.1
20260505025257 48 22 4.3 0.0 0.00 0.00 0.00 84 1058.0
20260505025154 48 0 3.5 0.0 0.00 0.00 0.00 84 1058.0
20260505025047 48 45 3.5 0.0 0.00 0.00 0.00 84 1058.1
20260505024933 48 0 5.2 0.0 0.00 0.00 0.00 84 1058.0
20260505024811 48 22 5.2 0.0 0.00 0.00 0.00 84 1058.1
20260505024642 48 0 3.5 0.0 0.00 0.00 0.00 84 1058.1
20260505024527 48 22 3.5 0.0 0.00 0.00 0.00 84 1058.1
20260505024414 48 22 1.7 0.0 0.00 0.00 0.00 84 1058.2
20260505024253 48 22 7.0 0.0 0.00 0.00 0.00 84 1058.1
20260505024141 48 0 2.6 0.0 0.00 0.00 0.00 84 1058.1
20260505024034 48 45 5.2 0.0 0.00 0.00 0.00 84 1058.1
20260505023920 48 22 5.2 0.0 0.00 0.00 0.00 84 1058.2
20260505023754 48 0 1.7 0.0 0.00 0.00 0.00 84 1058.3
20260505023638 48 45 6.1 0.0 0.00 0.00 0.00 84 1058.2
20260505023526 48 22 5.2 0.0 0.00 0.00 0.00 84 1058.2
20260505023414 48 45 5.2 0.0 0.00 0.00 0.00 84 1058.2
20260505023301 48 45 1.7 0.0 0.00 0.00 0.00 84 1058.2
20260505023154 48 22 0.0 0.0 0.00 0.00 0.00 84 1058.2
20260505023041 48 22 3.5 0.0 0.00 0.00 0.00 84 1058.3
20260505022921 48 22 5.2 0.0 0.00 0.00 0.00 84 1058.3
20260505022814 48 22 5.2 0.0 0.00 0.00 0.00 84 1058.2
20260505022653 48 22 3.5 0.0 0.00 0.00 0.00 84 1058.3
20260505022532 48 22 5.2 0.0 0.00 0.00 0.00 84 1058.2
20260505022411 48 45 6.1 0.0 0.00 0.00 0.00 84 1058.2
20260505022306 48 22 7.8 0.0 0.00 0.00 0.00 84 1058.3
20260505022154 48 45 2.6 0.0 0.00 0.00 0.00 84 1058.3
20260505022050 48 0 3.5 0.0 0.00 0.00 0.00 84 1058.3
20260505021941 48 0 2.6 0.0 0.00 0.00 0.00 84 1058.2
20260505021822 48 22 1.7 0.0 0.00 0.00 0.00 84 1058.2
20260505021708 48 22 3.5 0.0 0.00 0.00 0.00 84 1058.3
20260505021549 48 22 0.0 0.0 0.00 0.00 0.00 84 1058.3
20260505021436 48 22 2.6 0.0 0.00 0.00 0.00 84 1058.3
20260505021331 48 22 1.7 0.0 0.00 0.00 0.00 84 1058.2
20260505021224 48 45 3.5 0.0 0.00 0.00 0.00 84 1058.4
20260505021110 48 22 5.2 0.0 0.00 0.00 0.00 84 1058.3
20260505020943 48 22 6.1 0.0 0.00 0.00 0.00 84 1058.4
20260505020837 48 22 2.6 0.0 0.00 0.00 0.00 84 1058.4
20260505020724 48 22 0.0 0.0 0.00 0.00 0.00 84 1058.3
20260505020602 48 0 1.7 0.0 0.00 0.00 0.00 84 1058.3
20260505020442 48 22 2.6 0.0 0.00 0.00 0.00 84 1058.3
20260505020337 48 0 0.0 0.0 0.00 0.00 0.00 84 1058.3
20260505020232 48 45 1.7 0.0 0.00 0.00 0.00 84 1058.4
20260505020126 48 0 3.5 0.0 0.00 0.00 0.00 84 1058.4
20260505020012 48 0 3.5 0.0 0.00 0.00 0.00 84 1058.4
20260505015900 48 0 6.1 0.0 0.00 0.00 0.00 84 1058.5
20260505015746 48 22 3.5 0.0 0.00 0.00 0.00 84 1058.4
20260505015632 48 22 6.1 0.0 0.00 0.00 0.00 84 1058.5
20260505015512 48 22 6.1 0.0 0.00 0.00 0.00 84 1058.4
20260505015352 48 22 4.3 0.0 0.00 0.00 0.00 84 1058.4
20260505015246 48 0 3.5 0.0 0.00 0.00 0.00 84 1058.4
20260505015141 48 22 5.2 0.0 0.00 0.00 0.00 84 1058.4
20260505015027 48 67 7.0 0.0 0.00 0.00 0.00 84 1058.5
20260505014900 48 0 2.6 0.0 0.00 0.00 0.00 84 1058.4
20260505014754 48 22 5.2 0.0 0.00 0.00 0.00 84 1058.4
20260505014649 48 0 2.6 0.0 0.00 0.00 0.00 84 1058.4
20260505014535 48 45 5.2 0.0 0.00 0.00 0.00 84 1058.4
20260505014415 48 22 8.7 0.0 0.00 0.00 0.00 84 1058.4
20260505014301 48 337 3.5 0.0 0.00 0.00 0.00 84 1058.4
20260505014139 48 0 4.3 0.0 0.00 0.00 0.00 84 1058.4
20260505014029 48 22 4.3 0.0 0.00 0.00 0.00 84 1058.5
20260505013924 48 337 5.2 0.0 0.00 0.00 0.00 84 1058.5
20260505013819 48 0 1.7 0.0 0.00 0.00 0.00 84 1058.5
20260505013712 48 0 1.7 0.0 0.00 0.00 0.00 84 1058.4
20260505013558 48 45 6.1 0.0 0.00 0.00 0.00 84 1058.5
20260505013437 48 22 2.6 0.0 0.00 0.00 0.00 84 1058.4
20260505013315 48 0 3.5 0.0 0.00 0.00 0.00 84 1058.6
20260505013138 48 337 2.6 0.0 0.00 0.00 0.00 84 1058.5
20260505012903 48 0 2.6 0.0 0.00 0.00 0.00 84 1058.5
20260505012751 48 0 0.9 0.0 0.00 0.00 0.00 84 1058.6
20260505012517 48 0 2.6 0.0 0.00 0.00 0.00 84 1058.5
20260505012414 48 0 0.0 0.0 0.00 0.00 0.00 84 1058.5
20260505012306 48 0 2.6 0.0 0.00 0.00 0.00 84 1058.6
20260505012155 48 0 5.2 0.0 0.00 0.00 0.00 84 1058.6
20260505012048 48 337 5.2 0.0 0.00 0.00 0.00 84 1058.6
20260505011919 48 22 2.6 0.0 0.00 0.00 0.00 84 1058.6
20260505011805 48 45 3.5 0.0 0.00 0.00 0.00 84 1058.6
20260505011652 48 0 4.3 0.0 0.00 0.00 0.00 84 1058.7
20260505011533 48 22 0.0 0.0 0.00 0.00 0.00 84 1058.7
20260505011424 48 22 0.0 0.0 0.00 0.00 0.00 84 1058.6
20260505011310 48 22 0.0 0.0 0.00 0.00 0.00 84 1058.7
20260505011147 48 45 3.5 0.0 0.00 0.00 0.00 84 1058.6
20260505011035 48 22 2.6 0.0 0.00 0.00 0.00 84 1058.6
20260505010927 48 0 2.6 0.0 0.00 0.00 0.00 84 1058.6
20260505010812 48 0 4.3 0.0 0.00 0.00 0.00 84 1058.6
20260505010652 48 22 2.6 0.0 0.00 0.00 0.00 84 1058.6
20260505010536 48 22 5.2 0.0 0.00 0.00 0.00 84 1058.7
20260505010422 48 0 2.6 0.0 0.00 0.00 0.00 84 1058.7
20260505010306 48 22 2.6 0.0 0.00 0.00 0.00 84 1058.6
20260505005925 48 22 6.1 0.0 0.00 0.00 0.00 84 1058.7
20260505005811 48 22 1.7 0.0 0.00 0.00 0.00 84 1058.7
20260505005648 48 0 3.5 0.0 0.00 0.00 0.00 84 1058.7
20260505005535 48 0 1.7 0.0 0.00 0.00 0.00 84 1058.7
20260505005430 48 22 1.7 0.0 0.00 0.00 0.00 84 1058.8
20260505005323 48 22 0.0 0.0 0.00 0.00 0.00 84 1058.8
20260505005218 48 45 0.0 0.0 0.00 0.00 0.00 84 1058.8
20260505005111 48 0 1.7 0.0 0.00 0.00 0.00 84 1058.8
20260505005005 48 0 5.2 0.0 0.00 0.00 0.00 84 1058.8
20260505004851 48 0 3.5 0.0 0.00 0.00 0.00 84 1058.8
20260505004728 48 22 5.2 0.0 0.00 0.00 0.00 84 1058.8
20260505004614 48 22 2.6 0.0 0.00 0.00 0.00 84 1058.8
20260505004453 48 22 3.5 0.0 0.00 0.00 0.00 84 1058.9
20260505004339 48 0 1.7 0.0 0.00 0.00 0.00 84 1058.8
20260505004224 48 0 3.5 0.0 0.00 0.00 0.00 84 1058.8
20260505004104 48 45 5.2 0.0 0.00 0.00 0.00 84 1058.8
20260505003951 48 0 0.0 0.0 0.00 0.00 0.00 84 1058.8
20260505003843 48 0 7.0 0.0 0.00 0.00 0.00 84 1058.8
20260505003729 48 22 2.6 0.0 0.00 0.00 0.00 84 1058.9
20260505003624 48 22 2.6 0.0 0.00 0.00 0.00 84 1058.9
20260505003517 48 0 0.0 0.0 0.00 0.00 0.00 84 1058.9
20260505003406 48 0 0.0 0.0 0.00 0.00 0.00 84 1058.8
20260505003257 48 0 0.0 0.0 0.00 0.00 0.00 84 1058.8
20260505003143 48 22 1.7 0.0 0.00 0.00 0.00 84 1058.8
20260505003031 48 0 5.2 0.0 0.00 0.00 0.00 84 1058.8
20260505002923 48 22 5.2 0.0 0.00 0.00 0.00 84 1058.8
20260505002809 48 22 1.7 0.0 0.00 0.00 0.00 84 1058.8
20260505002703 48 22 0.0 0.0 0.00 0.00 0.00 84 1058.8
20260505002557 48 45 5.2 0.0 0.00 0.00 0.00 84 1058.7
20260505002450 48 45 3.5 0.0 0.00 0.00 0.00 84 1058.8
20260505002320 48 22 4.3 0.0 0.00 0.00 0.00 84 1058.8
20260505002206 48 22 2.6 0.0 0.00 0.00 0.00 84 1058.7
20260505002100 48 0 2.6 0.0 0.00 0.00 0.00 84 1058.8
20260505001953 48 45 0.0 0.0 0.00 0.00 0.00 83 1058.8
20260505001841 48 22 7.0 0.0 0.00 0.00 0.00 84 1058.9
20260505001717 48 22 1.7 0.0 0.00 0.00 0.00 83 1058.8
20260505001603 48 0 5.2 0.0 0.00 0.00 0.00 84 1058.9
20260505001457 48 0 5.2 0.0 0.00 0.00 0.00 84 1058.9
20260505001350 48 22 2.6 0.0 0.00 0.00 0.00 84 1058.8
20260505001237 48 22 4.3 0.0 0.00 0.00 0.00 84 1058.9
20260505001114 48 22 3.5 0.0 0.00 0.00 0.00 84 1058.9
20260505001000 48 0 5.2 0.0 0.00 0.00 0.00 84 1058.9
20260505000854 48 337 5.2 0.0 0.00 0.00 0.00 84 1058.9
20260505000746 48 0 5.2 0.0 0.00 0.00 0.00 84 1059.0
20260505000633 48 22 4.3 0.0 0.00 0.00 0.00 84 1059.0
20260505000510 48 337 0.0 0.0 0.00 0.00 0.00 84 1059.0
20260505000358 48 22 6.1 0.0 0.00 0.00 0.00 83 1059.0
20260505000251 48 45 3.5 0.0 0.00 0.00 0.00 83 1059.0
20260505000145 48 22 3.5 0.0 0.00 0.00 0.00 83 1059.0
20260505000024 48 22 0.0 0.0 0.00 0.00 0.00 84 1059.0
20260504235910 48 22 5.2 0.0 0.00 0.00 0.00 84 1059.0
20260504235756 48 22 2.6 0.0 0.00 0.00 0.00 83 1059.0
20260504235651 48 22 3.5 0.0 0.00 0.00 0.00 84 1059.0
20260504235543 48 22 6.1 0.0 0.00 0.00 0.00 84 1059.0
20260504235424 48 0 5.2 0.0 0.00 0.00 0.00 84 1059.0
20260504235316 48 0 0.0 0.0 0.00 0.00 0.00 84 1059.1
20260504235203 48 22 3.5 0.0 0.00 0.00 0.00 84 1059.0
20260504235050 48 22 1.7 0.0 0.00 0.00 0.00 84 1059.1
20260504234945 48 0 5.2 0.0 0.00 0.00 0.00 84 1059.0
20260504234839 48 22 3.5 0.0 0.00 0.00 0.00 84 1059.1
20260504234733 48 22 5.2 0.0 0.00 0.00 0.00 84 1059.1
20260504234626 48 22 6.1 0.0 0.00 0.00 0.00 84 1059.0
20260504234458 48 45 6.1 0.0 0.00 0.00 0.00 84 1059.0
20260504234352 48 0 0.9 0.0 0.00 0.00 0.00 84 1059.1
20260504234238 48 45 3.5 0.0 0.00 0.00 0.00 84 1059.1
20260504234125 48 45 3.5 0.0 0.00 0.00 0.00 84 1059.1
20260504234012 48 22 3.5 0.0 0.00 0.00 0.00 84 1059.2
20260504233859 48 45 3.5 0.0 0.00 0.00 0.00 84 1059.1
20260504233745 48 22 5.2 0.0 0.00 0.00 0.00 84 1059.1
20260504233616 48 22 5.2 0.0 0.00 0.00 0.00 84 1059.2
20260504233503 48 45 0.0 0.0 0.00 0.00 0.00 84 1059.2
20260504233357 48 22 5.2 0.0 0.00 0.00 0.00 84 1059.2
20260504233251 48 22 3.5 0.0 0.00 0.00 0.00 84 1059.2
20260504233144 48 22 2.6 0.0 0.00 0.00 0.00 84 1059.2
20260504233014 48 22 4.3 0.0 0.00 0.00 0.00 84 1059.2
20260504232900 48 22 3.5 0.0 0.00 0.00 0.00 84 1059.3
20260504232754 48 45 4.3 0.0 0.00 0.00 0.00 84 1059.2
20260504232648 48 22 2.6 0.0 0.00 0.00 0.00 84 1059.2
20260504232533 48 22 3.5 0.0 0.00 0.00 0.00 84 1059.2
20260504232420 48 22 5.2 0.0 0.00 0.00 0.00 84 1059.3
20260504232316 48 0 0.0 0.0 0.00 0.00 0.00 84 1059.3
20260504232208 48 0 4.3 0.0 0.00 0.00 0.00 84 1059.2
20260504232047 48 22 4.3 0.0 0.00 0.00 0.00 84 1059.4
20260504231925 48 0 5.2 0.0 0.00 0.00 0.00 84 1059.3
20260504231811 48 0 0.0 0.0 0.00 0.00 0.00 84 1059.4
20260504231657 48 0 4.3 0.0 0.00 0.00 0.00 84 1059.4
20260504231551 48 22 3.5 0.0 0.00 0.00 0.00 84 1059.4
20260504231437 48 22 6.1 0.0 0.00 0.00 0.00 84 1059.4
20260504231315 48 45 1.7 0.0 0.00 0.00 0.00 84 1059.4
20260504231204 48 22 5.2 0.0 0.00 0.00 0.00 84 1059.5